Theta_e
295 296 297 299 302 304 306 306 307 308 310 312 312 315 316 316 318 319 320 319 319 319 318 316 316 316 317 320 321 322 322 321 321 322 324 326 326 326 327 328 329 329 329
294 294 294 295 296 298 300 301 301 301 304 308 311 313 311 315 314 316 317 316 317 319 319 318 317 316 316 316 316 318 320 320 320 320 321 321 321 323 324 325 326 327 327
295 294 293 293 293 293 294 296 297 297 297 300 302 307 307 311 311 313 314 316 315 318 319 317 317 316 315 314 314 314 317 319 318 317 319 319 319 320 320 321 324 323 323
296 295 293 292 292 292 292 292 293 294 294 294 294 298 299 303 305 308 312 314 313 314 315 316 316 317 315 315 315 315 317 318 318 317 317 317 317 318 317 317 318 320 319
295 295 294 293 292 291 291 291 291 291 292 292 292 293 294 298 301 300 301 305 307 308 311 312 313 314 315 315 315 314 315 316 317 317 315 315 316 316 314 312 312 313 317
295 294 294 293 290 289 290 289 290 290 290 291 291 291 292 292 292 295 294 297 301 302 304 307 309 311 312 313 312 312 313 314 314 315 315 315 314 314 313 310 309 309 312
293 293 292 291 290 289 289 289 289 289 289 289 290 290 290 290 290 290 291 290 291 294 296 300 301 303 306 308 309 309 310 312 312 313 312 312 312 310 312 310 308 307 308
291 291 292 291 289 289 289 288 288 288 288 288 288 289 289 289 289 289 289 289 289 290 290 291 293 295 299 301 303 304 305 307 308 308 308 308 308 308 307 306 306 306 305
289 289 289 289 288 287 288 288 288 287 287 287 288 288 288 289 288 288 288 288 288 288 289 289 290 290 290 292 294 295 297 298 300 303 305 305 305 306 305 304 303 303 304
288 288 288 287 287 286 287 287 287 287 286 286 287 287 287 287 287 287 288 288 287 288 288 288 289 288 289 289 289 290 291 291 292 294 297 299 299 299 299 301 300 299 298
287 287 286 286 286 286 287 286 285 285 285 285 286 286 286 286 286 286 287 287 287 287 288 288 288 288 288 288 288 289 289 289 290 290 290 290 291 292 292 292 292 293 293
285 285 286 286 286 286 286 287 286 285 284 284 284 285 285 285 286 286 286 287 287 287 287 288 288 288 288 288 288 288 288 288 288 288 289 289 289 289 290 290 290 291 291
284 284 284 284 284 285 285 285 285 285 285 284 284 284 284 284 285 285 285 286 286 286 286 287 287 287 287 288 288 288 288 288 288 288 288 288 288 288 288 288 289 289 289
284 283 283 283 284 284 284 285 285 286 286 286 286 286 286 286 285 285 285 286 286 287 287 288 287 287 287 287 287 287 288 288 288 288 288 288 288 288 288 288 288 288 288
284 284 284 283 283 283 283 283 283 284 285 286 286 287 287 287 287 287 287 288 288 289 289 289 289 288 287 287 287 287 287 287 288 288 288 288 288 288 288 288 288 288 288
285 284 284 283 283 282 282 281 280 280 281 282 283 286 286 287 287 287 288 288 289 289 290 290 290 290 290 290 289 288 288 288 287 287 287 287 287 288 288 288 288 288 288
286 285 284 284 284 282 282 281 280 280 280 280 280 280 282 284 286 286 286 287 287 288 288 289 289 289 289 290 290 290 289 289 290 289 289 288 288 288 287 287 288 288 288
284 285 285 284 283 283 282 281 281 281 281 280 279 279 279 280 280 282 283 284 285 286 286 287 287 288 288 288 289 289 289 289 289 289 289 289 289 289 288 287 287 287 287
282 283 285 284 283 282 282 281 281 282 281 281 281 280 279 279 279 279 279 280 281 282 283 284 284 285 285 286 286 287 288 288 289 289 288 288 289 288 288 287 287 286 286
280 281 281 282 282 282 282 281 281 282 282 282 281 281 280 279 279 278 278 279 279 279 279 280 281 282 283 283 284 284 285 286 286 287 288 288 288 288 287 287 286 285 285
277 279 280 280 280 280 279 280 280 281 281 281 281 281 280 280 279 278 278 278 278 278 279 279 279 279 280 280 281 282 282 283 283 284 285 286 287 287 286 286 286 285 284
274 275 277 278 279 279 279 279 280 280 279 280 280 280 279 279 279 279 278 278 278 278 278 278 278 279 279 279 280 280 280 280 281 282 282 283 283 284 285 285 285 285 284
271 272 273 275 277 278 279 279 279 279 278 280 280 279 279 278 278 277 277 277 277 277 277 277 278 278 278 279 279 279 279 279 280 280 280 281 282 283 283 284 284 285 284
269 270 271 272 274 275 277 277 277 277 277 278 278 278 278 277 277 276 276 276 276 276 277 277 277 277 277 278 278 278 279 279 279 279 280 280 281 282 282 282 283 284 284
268 269 270 271 272 274 275 276 276 276 276 277 277 276 276 276 276 275 275 275 275 275 276 276 276 276 276 277 278 278 279 279 279 279 279 279 280 280 281 282 282 282 283
268 268 269 270 271 271 273 274 275 275 275 275 275 275 275 275 274 274 274 274 275 275 276 276 277 277 277 278 279 279 280 280 280 281 281 280 281 281 281 281 281 282 282
Wind_Speed
3 3 5 7 9 11 11 12 13 13 14 13 14 18 16 17 19 20 17 16 16 16 16 13 14 14 11 12 13 11 13 7 6 8 11 15 16 15 19 14 19 16 18
3 2 4 5 7 9 11 11 11 11 12 14 15 15 12 17 15 17 19 17 18 17 20 18 20 17 14 10 8 12 13 11 9 4 5 4 9 17 19 20 21 18 21
10 6 3 4 5 7 8 9 11 10 9 10 11 15 14 15 11 13 14 14 15 18 20 20 22 20 16 14 12 9 9 13 10 11 9 6 6 4 8 15 22 27 25
10 9 8 5 7 7 7 9 9 10 9 9 8 10 11 11 14 14 18 20 17 18 19 22 23 22 19 15 14 13 12 13 11 11 11 12 12 8 7 13 14 19 22
6 4 7 11 8 7 9 8 10 10 10 10 9 9 12 10 15 13 12 15 17 17 18 19 20 19 19 17 15 14 15 15 14 15 13 10 12 12 11 7 12 15 17
6 5 4 8 6 7 7 8 7 7 8 10 10 10 7 9 10 13 10 10 12 13 15 16 16 18 18 17 16 15 15 14 14 15 16 14 10 11 12 9 10 10 13
5 6 6 7 8 7 6 6 6 7 8 9 10 9 7 7 7 8 10 9 10 10 9 9 10 11 13 14 15 16 15 15 15 15 14 14 14 12 11 12 10 8 10
6 6 8 9 8 8 7 6 6 7 8 8 9 10 12 10 9 8 8 9 8 7 8 7 6 6 7 9 11 12 13 13 14 13 13 13 13 13 11 11 11 9 10
4 6 5 5 8 8 7 7 6 6 6 7 8 9 10 8 8 8 7 7 7 7 7 6 6 5 6 6 7 8 9 9 11 11 12 12 11 10 10 9 10 8 7
4 4 5 5 8 8 7 7 7 7 6 6 7 7 7 8 8 7 7 7 6 5 5 5 5 5 5 5 6 6 6 7 7 8 8 9 8 8 7 8 9 9 9
7 6 6 5 6 5 6 7 6 6 6 6 6 7 7 8 8 7 7 6 5 5 5 4 4 5 5 5 5 5 5 6 6 6 6 6 7 7 7 8 9 9 10
7 8 8 8 6 5 5 5 5 5 5 6 6 6 7 7 7 7 6 6 7 6 5 4 4 4 3 3 4 3 3 4 4 4 4 4 6 6 7 7 8 9 10
7 7 6 6 6 5 5 4 4 4 4 5 5 6 6 6 6 6 6 6 5 5 6 5 5 4 4 3 3 2 3 3 2 3 3 4 5 5 6 6 7 8 9
6 7 7 7 8 8 7 5 4 4 4 3 3 3 4 5 6 6 6 6 6 6 6 6 5 5 4 3 3 3 3 2 2 3 3 4 5 5 5 6 6 6 7
3 2 3 5 8 10 11 10 9 7 3 2 4 3 2 3 4 5 5 6 6 6 6 5 5 5 5 5 4 3 3 3 3 3 3 3 4 5 5 5 5 5 6
3 2 2 2 4 5 6 6 5 4 4 4 5 5 6 6 5 5 6 6 7 7 7 6 6 5 6 4 5 5 5 4 4 4 4 4 5 5 5 6 6 6 6
6 5 6 6 5 7 7 7 5 5 4 4 6 7 8 9 9 9 9 9 10 10 10 10 9 9 8 8 8 8 8 8 8 7 7 7 8 7 8 8 8 8 9
13 11 10 11 12 10 8 7 7 6 6 6 5 6 8 10 12 13 13 13 13 13 13 13 13 13 13 14 14 14 14 14 13 13 13 13 12 12 12 11 11 11 11
16 12 10 12 14 14 12 10 9 8 8 8 8 8 8 9 11 13 14 16 17 17 17 16 16 16 15 15 15 16 16 17 17 17 17 16 16 16 17 15 15 15 14
16 16 14 17 18 18 17 15 13 13 12 11 10 10 10 11 12 13 13 14 16 17 19 20 20 20 20 19 18 18 19 18 19 19 19 19 18 17 17 18 16 16 16
23 17 16 18 19 19 20 21 17 17 15 16 14 14 14 13 13 15 16 16 16 16 16 17 18 19 20 21 22 22 23 22 21 21 19 18 18 18 17 17 19 17 17
28 25 23 22 21 22 23 27 24 20 19 20 18 17 16 16 16 15 15 16 17 17 16 16 15 15 16 17 17 19 21 22 24 24 23 21 19 17 14 16 18 17 15
31 30 27 27 25 23 26 29 28 23 22 23 21 20 19 18 18 18 16 16 16 16 15 14 14 12 12 12 13 14 17 19 19 23 23 23 20 17 17 18 17 16 19
29 26 27 28 27 28 24 27 27 26 25 26 24 22 21 20 19 18 17 16 16 15 14 13 12 12 11 10 9 9 11 13 16 18 19 20 21 20 21 21 20 20 22
31 29 28 26 26 24 23 23 27 28 27 27 25 23 22 21 19 18 17 17 15 14 15 14 13 12 12 9 8 9 13 12 9 11 13 14 15 18 21 22 22 21 22
28 28 28 25 25 23 25 24 26 28 28 26 24 22 21 20 18 16 16 15 14 15 14 14 15 17 15 13 13 15 15 14 13 15 18 19 17 16 14 16 24 24 24
Wind_Direction
220 195 188 189 199 208 213 211 208 208 206 210 196 193 193 190 186 177 194 204 220 204 196 199 208 217 220 225 241 248 253 229 245 236 237 246 250 253 254 244 235 231 239
174 218 196 194 194 206 208 210 213 214 215 211 220 207 218 202 201 208 204 204 208 206 208 213 218 226 224 238 252 255 248 229 171 179 162 231 263 253 256 257 259 255 247
157 156 186 196 200 192 200 207 211 214 220 221 217 223 234 224 223 216 238 204 210 210 219 220 215 232 228 221 237 248 249 235 222 194 197 209 218 261 265 250 256 258 254
167 178 167 175 195 195 198 198 202 205 201 200 197 198 214 218 227 231 231 231 229 222 218 219 224 235 239 234 237 243 235 225 250 251 232 225 222 209 243 250 252 252 247
177 181 202 205 199 196 195 200 202 196 193 197 185 194 217 215 217 226 220 219 225 226 226 223 224 231 238 244 243 242 248 248 245 249 250 241 246 247 237 261 235 231 243
177 157 197 228 208 196 205 192 198 198 196 190 186 195 204 206 204 208 210 212 218 223 225 225 226 229 231 233 242 239 242 245 246 243 254 250 258 244 235 256 268 253 234
182 201 245 219 197 194 197 189 189 191 191 195 191 186 180 198 198 200 203 211 206 211 220 219 222 229 231 230 232 237 237 238 241 243 243 246 245 248 246 242 251 258 230
190 186 183 216 195 189 191 185 184 183 184 185 192 182 184 186 187 199 203 211 215 204 214 213 208 211 219 225 229 231 231 232 236 236 236 238 239 238 243 240 249 245 257
174 192 140 196 195 177 177 178 175 180 182 183 185 191 189 193 194 200 202 201 204 202 202 207 208 211 209 202 213 218 223 221 226 228 234 232 235 235 234 225 230 241 244
110 155 194 214 184 163 161 164 166 169 174 178 182 186 190 182 186 193 197 194 199 193 196 201 193 209 210 202 204 202 205 210 219 223 226 233 230 228 226 235 232 233 233
94 100 106 111 127 159 177 170 166 169 173 176 178 180 182 188 181 186 187 185 190 198 197 186 186 196 194 199 199 198 202 204 210 214 219 221 227 231 227 231 235 239 246
103 113 125 138 149 156 170 186 178 175 174 175 180 181 183 189 197 194 190 185 181 182 183 188 191 188 187 187 190 189 197 202 205 213 223 223 233 232 234 230 234 238 242
97 99 107 107 108 110 117 127 150 160 157 168 176 184 189 191 191 194 193 196 193 188 184 185 186 182 181 182 189 191 196 204 201 213 221 230 239 238 238 238 240 241 245
102 98 95 91 87 84 82 84 96 124 157 167 147 165 182 193 198 199 199 202 203 201 204 200 198 199 198 197 197 192 195 203 195 204 211 225 239 244 241 241 244 246 247
119 106 88 69 55 41 29 20 16 19 22 184 191 195 198 196 200 201 199 197 196 197 200 201 202 199 197 204 208 218 216 221 220 230 235 237 241 244 246 252 253 252 253
226 241 270 325 2 357 343 344 329 304 282 290 296 257 231 228 237 234 229 225 219 214 212 212 215 214 222 217 221 220 223 219 228 239 245 256 261 262 260 257 260 265 266
322 279 281 285 298 288 313 330 337 334 319 289 264 258 258 260 253 246 249 246 243 241 240 238 238 240 244 248 248 248 248 251 247 249 255 260 266 265 269 270 270 267 270
345 311 278 261 267 275 292 306 318 326 328 323 304 278 265 259 255 253 252 253 255 255 255 254 255 255 254 254 254 255 255 254 256 258 260 261 260 265 265 266 267 268 268
339 321 297 268 269 275 282 290 295 302 308 312 311 307 294 281 272 266 263 261 259 259 259 259 258 258 259 260 260 258 256 255 255 255 257 262 264 263 266 264 265 267 270
330 321 299 281 267 269 275 277 281 287 293 296 298 299 300 297 291 283 275 269 266 263 262 262 262 261 259 258 261 263 265 261 258 254 254 258 262 264 262 266 262 265 266
310 305 306 282 274 277 273 272 273 275 281 281 287 288 290 290 288 286 284 281 276 271 267 265 263 264 264 261 258 258 261 264 266 268 265 257 253 255 258 256 261 262 265
303 300 289 284 285 272 264 268 269 273 271 274 277 278 281 284 285 284 279 277 276 276 275 274 270 266 263 263 260 257 256 258 259 261 264 267 263 254 250 255 249 260 259
302 296 290 281 271 277 269 267 267 266 264 268 270 271 273 277 280 282 280 274 272 272 272 273 274 272 268 263 260 258 254 254 256 261 261 261 264 267 263 250 251 251 247
307 302 297 289 282 266 264 262 266 262 258 261 263 265 267 271 272 273 275 272 267 267 269 269 269 269 268 268 270 267 259 256 259 263 265 260 254 258 263 263 257 243 245
307 307 304 298 281 275 264 252 259 260 258 256 258 260 262 264 265 266 263 261 264 261 264 268 272 275 272 267 268 292 300 300 290 282 269 266 269 268 259 252 257 259 247
316 308 299 297 295 285 272 266 252 250 255 254 256 258 260 260 261 259 254 246 256 262 256 263 274 283 276 279 272 267 268 270 274 275 274 279 278 276 278 269 251 255 257